Regional Weather Roundup
Issued by NWS Little Rock, AR

Home | Current Version | Previous Version | Graphics & Text | Print | Product List | Glossary On
Versions: 1 2 3 4 5 6 7 8 9 10 11 12 13 14 15 16 17 18 19 20 21 22 23 24 25 26 27 28 29 30 31
000
ASUS44 KLZK 191905
RWRLZK

WEATHER ROUNDUP FOR ARKANSAS
NATIONAL WEATHER SERVICE LITTLE ROCK AR
100 PM CST SUN FEB 19 2017

NOTE: "FAIR" INDICATES FEW OR NO CLOUDS BELOW 12,000 FEET WITH NO
SIGNIFICANT WEATHER AND/OR OBSTRUCTIONS TO VISIBILITY.

ARZ001-003-010-029-192000-
NORTHWEST ARKANSAS

CITY           SKY/WX    TMP DP  RH WIND       PRES   REMARKS
FAYETTEVILLE   SUNNY     70  57  63 S10G21    29.99F
FORT SMITH     MOSUNNY   71  57  61 NE9       29.97F
HARRISON       SUNNY     70  58  65 SE13      30.01F
BENTONVILLE    SUNNY     72  55  56 SW9       29.99F
ROGERS         SUNNY     74  57  55 S12G17    29.98F
SILOAM SPGS    MOSUNNY   70  55  60 S14       29.99F
HIGHFILL       SUNNY     73  55  53 SW14      29.98F
SPRINGDALE     SUNNY     73  57  56 S8        30.00F
$$

ARZ004-005-016-192000-
NORTH CENTRAL ARKANSAS

CITY           SKY/WX    TMP DP  RH WIND       PRES   REMARKS
BATESVILLE     CLOUDY    66  55  68 S8        30.07F
FLIPPIN        PTSUNNY   72  55  56 S8        30.00F
$$

ARZ040-041-192000-
WEST CENTRAL ARKANSAS

CITY           SKY/WX    TMP DP  RH WIND       PRES   REMARKS
MENA           CLOUDY    68  66  94 SE3       30.01F
MOUNT IDA      CLOUDY    66  59  78 SE5       30.01F
$$

ARZ009-017-025-026-028-192000-
NORTHEAST ARKANSAS

CITY           SKY/WX    TMP DP  RH WIND       PRES   REMARKS
CORNING        FAIR      63  63 100 CALM      30.08F
JONESBORO      SUNNY     69  56  62 S6        30.07F
NEWPORT        CLOUDY    67  57  70 SE5       30.07F
WALNUT RIDGE   SUNNY     63  55  77 SW3       30.08F
BLYTHEVILLE    SUNNY     70  57  63 MISG      30.08F
$$

ARZ022-023-033-042-044-192000-
CENTRAL ARKANSAS

CITY           SKY/WX    TMP DP  RH WIND       PRES   REMARKS
LITTLE ROCK    MOSUNNY   72  59  63 E10       30.03F
N LITTLE ROCK    N/A     69  60  71 E8        30.04F
JACKSONVILLE   SUNNY     71  60  68 SE8       30.03F
SEARCY         CLOUDY    65  58  78 E5        30.07F
HOT SPRINGS    CLOUDY    67  60  78 S3        30.04S
RUSSELLVILLE   SUNNY     69  57  65 VRB6      30.01F
CLINTON        CLOUDY    63  57  82 SE3       30.05F HAZE
$$

ARZ036-192000-
EAST ARKANSAS

CITY           SKY/WX    TMP DP  RH WIND       PRES   REMARKS
WEST MEMPHIS   SUNNY     71  56  58 S8        30.07F
$$

ARZ050-053-066-070-073-192000-
SOUTHWEST ARKANSAS

CITY           SKY/WX    TMP DP  RH WIND       PRES   REMARKS
ARKADELPHIA    CLOUDY    68  61  78 VRB3      30.04F
CAMDEN         SUNNY     75  57  53 CALM      30.03F
TEXARKANA      CLOUDY    65  61  87 VRB7      30.00F
EL DORADO      MOSUNNY   71  58  63 E3        30.03F
DE QUEEN       CLOUDY    64  62  93 E9        29.97F FOG
$$

ARZ056-057-069-192000-
SOUTHEAST ARKANSAS

CITY           SKY/WX    TMP DP  RH WIND       PRES   REMARKS
PINE BLUFF     SUNNY     73  59  61 E10       30.04F
STUTTGART      SUNNY     70  54  56 SE8       30.06F
MONTICELLO     SUNNY     76  57  51 S6        30.03F

$$






USA.gov is the U.S. government's official web portal to all federal, state and local government web resources and services.